[[{"header":{"parameterUnit":"m.s-1","parameterCategory":1,"la1":30.2991,"la2":30.254,"lo1":-89.0895,"lo2":-89.0444,"dy":0.0017,"dx":0.0017,"nx":28,"ny":28,"refTime":"2024-08-03T21:00:00:Z","depth":0,"parameterNumber":2,"parameterNumberName":"U-component_of_WINDS"},"data":[0,0,0,0,0,0,0,0,0,0,0,0,0,0,0,0,0,0,0,0,0,0,0,0,0,0,0,0,0,0,0,0,0,0,0,0,0,0,0,0,0,0,0,0,0,0,0,0,0,0,0,0,0,0,0,0,0,0,-1.375,-1.375,0,-1.3733,-1.3733,-1.3732,-1.3688,-1.3687,-1.3686,-1.3685,-1.3668,-1.3669,-1.3669,0,0,0,0,0,0,0,0,0,0,0,0,0,-1.3745,-1.3745,-1.375,-1.375,-1.375,-1.3733,-1.3733,-1.3732,-1.3688,-1.3687,-1.3686,-1.3685,-1.3668,-1.3669,-1.3669,0,0,0,0,0,0,0,0,0,0,0,0,0,-1.3739,-1.3745,-1.375,-1.3725,-1.3723,-1.3733,-1.3733,-1.3732,-1.3688,-1.3687,-1.3686,-1.3684,-1.3668,-1.3669,-1.3669,-1.3702,0,0,-1.3671,-1.3672,0,0,0,0,0,0,0,0,-1.374,-1.374,-1.3729,-1.3727,-1.3725,-1.3711,-1.3725,-1.3722,-1.3689,-1.3702,-1.3685,-1.3684,-1.3684,-1.3683,-1.3683,-1.3701,-1.37,-1.3671,-1.3672,-1.3672,-1.3672,0,0,0,0,0,0,0,-1.374,-1.374,-1.3743,-1.3729,-1.3726,-1.3715,-1.3713,-1.3724,-1.3701,-1.37,-1.3697,-1.3696,-1.3682,-1.3683,-1.3682,-1.37,-1.3671,-1.3672,-1.3672,-1.3673,-1.3744,-1.3745,0,0,0,0,0,0,-1.3744,-1.3741,-1.3744,-1.3743,-1.3729,-1.3717,-1.3714,-1.3717,-1.3701,-1.3697,-1.3697,-1.3694,-1.3682,-1.3682,-1.3682,-1.3719,-1.3672,-1.3673,-1.3673,-1.3742,-1.3744,-1.3745,0,0,0,0,0,0,-1.3744,-1.3745,-1.3744,-1.3741,-1.374,-1.3718,-1.3722,-1.3717,-1.3717,-1.3698,-1.3694,-1.3701,-1.3681,-1.3681,-1.3697,-1.3717,-1.3673,-1.3674,-1.374,-1.3743,-1.3745,-1.3793,0,0,0,0,0,0,-1.3744,-1.3745,-1.3757,-1.3741,-1.374,-1.376,-1.3723,-1.3718,-1.3719,-1.3714,-1.3701,-1.3698,-1.368,-1.3696,-1.3698,-1.3717,-1.3674,-1.3738,-1.3741,-1.3744,-1.3789,-1.3796,-1.3803,0,0,0,0,0,-1.3744,-1.3772,-1.3758,-1.3759,-1.3755,-1.3762,-1.3761,-1.374,-1.372,-1.3732,-1.372,-1.3698,-1.3715,-1.3698,-1.37,-1.372,-1.3737,-1.374,-1.3744,-1.3786,-1.3795,-1.3802,0,0,0,0,0,0,-1.3791,-1.3769,-1.3754,-1.3777,-1.3771,-1.3754,-1.3769,-1.375,-1.375,-1.3746,-1.3719,-1.3717,-1.3737,-1.373,-1.3712,-1.375,-1.3722,-1.3726,-1.3754,-1.3762,-1.3769,-1.3771,-1.3675,0,0,0,0,0,-1.3804,-1.3811,-1.3791,-1.3814,-1.3812,-1.3791,-1.3793,-1.3777,-1.377,-1.3768,-1.3756,-1.3751,-1.3755,-1.3758,-1.376,-1.3788,-1.3784,-1.3802,-1.3809,-1.3814,-1.3818,-1.3832,-1.384,-1.3756,-1.3756,-1.3756,0,0,-1.3831,-1.382,-1.3826,-1.3823,-1.3817,-1.3825,-1.3789,-1.3799,-1.3805,-1.3769,-1.3784,-1.3775,-1.3767,-1.379,-1.3799,-1.3784,-1.384,-1.3818,-1.3823,-1.3824,-1.3836,-1.3844,-1.3851,-1.3759,-1.3758,-1.3758,0,0,-1.3884,-1.3877,-1.3894,-1.3889,-1.3879,-1.3865,-1.3869,-1.3855,-1.3848,-1.3862,-1.3835,-1.3841,-1.3849,-1.3844,-1.3843,-1.3894,-1.3874,-1.3895,-1.393,-1.3944,-1.395,-1.3956,-1.3975,-1.3982,-1.3899,-1.3899,-1.3899,0,-1.3919,-1.393,-1.3906,-1.3918,-1.3917,-1.3884,-1.3902,-1.3898,-1.389,-1.3891,-1.3874,-1.3883,-1.3875,-1.3896,-1.3908,-1.3908,-1.3912,-1.3897,-1.3951,-1.3957,-1.3962,-1.3979,-1.3986,-1.3902,-1.3901,-1.3901,-1.3901,0,-1.3974,-1.3982,-1.3997,-1.399,-1.3991,-1.4006,-1.3984,-1.3988,-1.3971,-1.3959,-1.3974,-1.3963,-1.3963,-1.3966,-1.3951,-1.3985,-1.3976,-1.3956,-1.3928,-1.3973,-1.3989,-1.3995,-1.3906,-1.3905,-1.3904,-1.3903,0,0,-1.4058,-1.4036,-1.4042,-1.4039,-1.4026,-1.4031,-1.4044,-1.4044,-1.4048,-1.4043,-1.4054,-1.406,-1.4041,-1.404,-1.4023,-1.4035,-1.4076,-1.4013,-1.4013,-1.4026,-1.4113,-1.4129,-1.4138,-1.4063,-1.4064,-1.4065,-1.4114,0,-1.4109,-1.413,-1.4108,-1.4134,-1.4141,-1.4109,-1.412,-1.4114,-1.4102,-1.4106,-1.4093,-1.4098,-1.4073,-1.4072,-1.4082,-1.4069,-1.4094,-1.4065,-1.4073,-1.4073,-1.4077,-1.4146,-1.4163,-1.421,-1.412,-1.4121,-1.4122,0,-1.4171,-1.4169,-1.4196,-1.418,-1.4182,-1.4193,-1.419,-1.4195,-1.4186,-1.4177,-1.4175,-1.4154,-1.4166,-1.4138,-1.4154,-1.4135,-1.4136,-1.413,-1.4131,-1.4132,-1.4101,-1.4149,-1.4225,-1.4232,-1.4132,-1.4131,-1.413,0,-1.4231,-1.4234,-1.425,-1.4248,-1.4231,-1.4239,-1.4232,-1.4222,-1.4223,-1.4221,-1.4221,-1.422,-1.422,-1.422,-1.42,-1.4181,-1.4218,-1.4188,-1.4211,-1.4212,-1.4222,-1.4221,-1.43,-1.4221,-1.4221,-1.4221,-1.4221,0,-1.429,-1.4308,-1.4277,-1.4287,-1.4305,-1.428,-1.4299,-1.4289,-1.428,-1.4288,-1.426,-1.4268,-1.424,-1.4245,-1.4229,-1.4245,-1.4245,-1.4238,-1.4234,-1.4241,-1.4242,-1.4242,-1.4239,-1.4223,-1.4222,-1.4222,-1.4222,0,-1.4361,-1.434,-1.4356,-1.4338,-1.4333,-1.4348,-1.4332,-1.4341,-1.4327,-1.4337,-1.4338,-1.4316,-1.432,-1.43,-1.43,-1.429,-1.4314,-1.4303,-1.4317,-1.4314,-1.4339,-1.4337,-1.442,-1.443,-1.4345,-1.4346,-1.4347,0,-1.4401,-1.4413,-1.4396,-1.4399,-1.4393,-1.4398,-1.4399,-1.4374,-1.4376,-1.4366,-1.4376,-1.4378,-1.4378,-1.4386,-1.4371,-1.4371,-1.4361,-1.439,-1.4361,-1.4368,-1.4362,-1.4362,-1.4363,-1.4397,-1.4398,-1.4399,-1.4399,0,-1.4474,-1.4463,-1.4465,-1.4463,-1.4464,-1.4461,-1.4457,-1.4461,-1.4434,-1.4437,-1.4441,-1.4441,-1.4441,-1.4443,-1.444,-1.4433,-1.4412,-1.4408,-1.4414,-1.4422,-1.443,-1.4426,-1.4334,-1.4407,-1.4406,-1.4406,-1.4405,-1.4405,-1.4531,-1.454,-1.453,-1.4532,-1.4526,-1.4522,-1.453,-1.4516,-1.4519,-1.4517,-1.4501,-1.4508,-1.4499,-1.4492,-1.4487,-1.4492,-1.4478,-1.4486,-1.4488,-1.4491,-1.4495,-1.4428,-1.4491,-1.4491,-1.4491,-1.4491,-1.449,0,-1.4603,-1.4594,-1.4597,-1.4591,-1.4593,-1.4572,-1.4566,-1.4569,-1.4575,-1.4568,-1.4569,-1.4573,-1.4575,-1.4559,-1.4558,-1.4565,-1.4556,-1.4566,-1.4566,-1.4565,-1.4507,-1.4503,-1.4574,-1.4574,-1.4574,-1.4574,-1.4574,-1.4574,-1.4641,-1.4657,-1.4644,-1.4656,-1.4647,-1.4653,-1.4651,-1.4648,-1.4642,-1.4648,-1.4649,-1.4638,-1.4627,-1.4626,-1.4627,-1.4622,-1.4623,-1.4638,-1.463,-1.4577,-1.4569,-1.4561,-1.4557,-1.4638,-1.4638,-1.4687,-1.4687,-1.4687]},{"header":{"parameterUnit":"m.s-1","parameterCategory":1,"la1":30.2991,"la2":30.254,"lo1":-89.0895,"lo2":-89.0444,"dy":0.0017,"dx":0.0017,"nx":28,"ny":28,"refTime":"2024-08-03T21:00:00:Z","depth":0,"parameterNumber":3,"parameterNumberName":"V-component_of_WINDS"},"data":[0,0,0,0,0,0,0,0,0,0,0,0,0,0,0,0,0,0,0,0,0,0,0,0,0,0,0,0,0,0,0,0,0,0,0,0,0,0,0,0,0,0,0,0,0,0,0,0,0,0,0,0,0,0,0,0,0,0,-4.1059,-4.106,0,-4.1098,-4.1098,-4.1099,-4.1064,-4.1063,-4.1061,-4.106,-4.1095,-4.1098,-4.11,0,0,0,0,0,0,0,0,0,0,0,0,0,-4.0952,-4.0954,-4.1059,-4.106,-4.106,-4.1098,-4.1098,-4.1099,-4.1064,-4.1063,-4.1061,-4.106,-4.1095,-4.1097,-4.11,0,0,0,0,0,0,0,0,0,0,0,0,0,-4.0995,-4.0955,-4.1059,-4.1048,-4.1047,-4.1098,-4.1098,-4.1099,-4.1065,-4.1063,-4.1061,-4.1059,-4.1094,-4.1097,-4.11,-4.1163,0,0,-4.1111,-4.1112,0,0,0,0,0,0,0,0,-4.0993,-4.0999,-4.1049,-4.1049,-4.1048,-4.1074,-4.1073,-4.112,-4.1065,-4.1058,-4.106,-4.1058,-4.109,-4.1093,-4.1105,-4.1165,-4.1166,-4.1111,-4.1113,-4.1114,-4.1115,0,0,0,0,0,0,0,-4.099,-4.0997,-4.1074,-4.105,-4.1049,-4.1039,-4.1043,-4.1082,-4.1085,-4.1058,-4.1056,-4.1061,-4.1089,-4.1102,-4.1106,-4.1167,-4.1111,-4.1114,-4.1116,-4.1117,-4.128,-4.1283,0,0,0,0,0,0,-4.0989,-4.0995,-4.1073,-4.1076,-4.1015,-4.1043,-4.1047,-4.1068,-4.1085,-4.1085,-4.1063,-4.106,-4.1097,-4.1102,-4.1107,-4.1182,-4.1114,-4.1117,-4.1119,-4.1278,-4.1281,-4.1283,0,0,0,0,0,0,-4.0987,-4.0996,-4.1072,-4.1035,-4.1044,-4.1047,-4.107,-4.107,-4.1083,-4.1088,-4.1088,-4.1076,-4.1096,-4.1102,-4.115,-4.1183,-4.1119,-4.1122,-4.1275,-4.1279,-4.1282,-4.1333,0,0,0,0,0,0,-4.0984,-4.0995,-4.102,-4.1036,-4.1046,-4.1115,-4.1072,-4.1072,-4.1089,-4.1085,-4.11,-4.1101,-4.1094,-4.1145,-4.1153,-4.1186,-4.1125,-4.1272,-4.1277,-4.1281,-4.1328,-4.1338,-4.1346,0,0,0,0,0,-4.098,-4.1032,-4.1022,-4.1031,-4.1077,-4.1117,-4.1123,-4.1116,-4.1092,-4.1116,-4.112,-4.11,-4.1178,-4.115,-4.1159,-4.1194,-4.127,-4.1276,-4.1281,-4.1325,-4.1336,-4.1346,0,0,0,0,0,0,-4.1018,-4.1033,-4.1022,-4.1081,-4.1099,-4.1112,-4.1142,-4.1128,-4.1152,-4.1147,-4.1136,-4.114,-4.1191,-4.1196,-4.1166,-4.1256,-4.122,-4.1227,-4.125,-4.1261,-4.127,-4.1267,-4.1127,0,0,0,0,0,-4.1034,-4.1066,-4.1077,-4.1128,-4.1138,-4.1139,-4.1156,-4.1149,-4.1166,-4.1173,-4.118,-4.1196,-4.1224,-4.1243,-4.1269,-4.1329,-4.1332,-4.1357,-4.1366,-4.1373,-4.138,-4.1413,-4.1424,-4.1301,-4.1301,-4.1301,0,0,-4.1065,-4.1078,-4.1099,-4.1136,-4.1149,-4.1182,-4.1145,-4.1181,-4.1206,-4.1178,-4.1224,-4.123,-4.1247,-4.1302,-4.1326,-4.1308,-4.1414,-4.138,-4.1385,-4.1388,-4.1419,-4.1431,-4.1442,-4.1304,-4.1304,-4.1303,0,0,-4.1141,-4.1153,-4.1198,-4.1212,-4.1232,-4.1233,-4.1243,-4.1259,-4.1262,-4.1309,-4.1289,-4.1317,-4.1365,-4.1379,-4.1392,-4.1474,-4.1457,-4.1482,-4.1528,-4.1561,-4.1571,-4.1579,-4.161,-4.162,-4.1489,-4.1489,-4.1489,0,-4.1177,-4.1228,-4.1222,-4.1261,-4.1278,-4.1256,-4.13,-4.1313,-4.134,-4.1352,-4.1332,-4.1394,-4.1403,-4.1462,-4.1482,-4.1493,-4.1504,-4.1481,-4.157,-4.1579,-4.1587,-4.1615,-4.1627,-4.1492,-4.1492,-4.1491,-4.1491,0,-4.1273,-4.1309,-4.1342,-4.1371,-4.1392,-4.1433,-4.1431,-4.1453,-4.1444,-4.1447,-4.1495,-4.1506,-4.1535,-4.1548,-4.1539,-4.1605,-4.1593,-4.1572,-4.1536,-4.1602,-4.1628,-4.1639,-4.1497,-4.1495,-4.1494,-4.1494,0,0,-4.1373,-4.14,-4.1412,-4.1426,-4.1447,-4.1474,-4.1514,-4.1544,-4.1563,-4.1582,-4.1615,-4.1657,-4.1638,-4.1653,-4.1646,-4.1674,-4.174,-4.1649,-4.1649,-4.1667,-4.1814,-4.1831,-4.1844,-4.1728,-4.173,-4.1732,-4.1813,0,-4.1451,-4.1523,-4.1518,-4.1586,-4.1619,-4.1599,-4.1633,-4.165,-4.1653,-4.1681,-4.1683,-4.1714,-4.1686,-4.1695,-4.1722,-4.1726,-4.1769,-4.172,-4.1759,-4.1761,-4.1757,-4.1858,-4.1875,-4.1951,-4.1823,-4.1825,-4.1826,0,-4.155,-4.1576,-4.1648,-4.1665,-4.1679,-4.1711,-4.1738,-4.1765,-4.1783,-4.1783,-4.1801,-4.1789,-4.1829,-4.1792,-4.1846,-4.1813,-4.1828,-4.1833,-4.1835,-4.1839,-4.1798,-4.1865,-4.1975,-4.1987,-4.1842,-4.1841,-4.184,0,-4.1618,-4.167,-4.172,-4.1732,-4.1753,-4.1777,-4.1786,-4.1802,-4.1821,-4.1844,-4.1856,-4.1883,-4.1898,-4.1918,-4.1914,-4.1887,-4.197,-4.1932,-4.1971,-4.1972,-4.199,-4.199,-4.2106,-4.1999,-4.1999,-4.1998,-4.1998,0,-4.1706,-4.175,-4.1751,-4.1782,-4.1831,-4.1825,-4.1874,-4.188,-4.1895,-4.1926,-4.1909,-4.1938,-4.193,-4.1958,-4.1955,-4.2001,-4.2007,-4.2009,-4.2007,-4.2011,-4.2011,-4.2022,-4.2017,-4.2001,-4.2001,-4.2,-4.2,0,-4.179,-4.1792,-4.1846,-4.1862,-4.1868,-4.1903,-4.1917,-4.1946,-4.1948,-4.1987,-4.1996,-4.1999,-4.2032,-4.203,-4.2066,-4.2063,-4.2121,-4.2113,-4.2116,-4.2115,-4.2154,-4.2151,-4.2282,-4.23,-4.218,-4.2182,-4.2183,0,-4.1846,-4.1881,-4.1902,-4.1923,-4.1935,-4.1968,-4.1987,-4.1982,-4.2003,-4.2026,-4.2052,-4.2084,-4.2109,-4.2162,-4.2167,-4.2195,-4.2188,-4.2232,-4.2192,-4.2195,-4.219,-4.2189,-4.2192,-4.224,-4.2241,-4.2242,-4.2243,0,-4.1947,-4.1946,-4.1976,-4.2007,-4.2031,-4.2054,-4.2075,-4.2093,-4.209,-4.2114,-4.2148,-4.2168,-4.2206,-4.2238,-4.2265,-4.2273,-4.2258,-4.2256,-4.2267,-4.2271,-4.2272,-4.2274,-4.2139,-4.2253,-4.2252,-4.2251,-4.2251,-4.225,-4.2019,-4.205,-4.207,-4.2104,-4.212,-4.214,-4.2169,-4.2175,-4.2205,-4.2237,-4.2231,-4.227,-4.2287,-4.2322,-4.2333,-4.2363,-4.2347,-4.2362,-4.2366,-4.2371,-4.2376,-4.2267,-4.2368,-4.2367,-4.2367,-4.2367,-4.2367,0,-4.212,-4.2132,-4.2164,-4.2195,-4.2222,-4.2207,-4.2229,-4.2253,-4.2288,-4.2306,-4.2332,-4.2372,-4.2403,-4.241,-4.244,-4.2462,-4.2456,-4.247,-4.2469,-4.2471,-4.2388,-4.2376,-4.2475,-4.2475,-4.2475,-4.2475,-4.2475,-4.2475,-4.2175,-4.2226,-4.2229,-4.2287,-4.2298,-4.2338,-4.2353,-4.2371,-4.2386,-4.2432,-4.2459,-4.2464,-4.2478,-4.2509,-4.2536,-4.2537,-4.2549,-4.2567,-4.2566,-4.2488,-4.2477,-4.2467,-4.2456,-4.2569,-4.2569,-4.2647,-4.2647,-4.2648]}]]